Regional Weather Roundup
Issued by NWS

Home | Current Version | Previous Version | Text Only | Print | Product List | Glossary On
Versions: 1 2 3 4 5 6 7 8 9 10 11 12 13 14 15 16 17 18 19 20 21 22 23 24 25 26 27 28 29 30 31 32 33 34 35 36 37 38 39 40 41 42 43 44 45 46 47 48 49 50
000
ASUS43 KLOT 070102
RWRIL

ILLINOIS REGIONAL WEATHER ROUNDUP
NATIONAL WEATHER SERVICE CHICAGO/ROMEOVILLE IL
800 PM CDT WED MAY 06 2015

NOTE: "FAIR" INDICATES FEW OR NO CLOUDS BELOW 12,000 FEET WITH NO
SIGNIFICANT WEATHER AND/OR OBSTRUCTIONS TO VISIBILITY.

* THESE STATIONS ARE NOT UNDER NWS QUALITY CONTROL. THEY ALSO MAY NOT
  REPORT WEATHER SUCH AS PRECIPITATION OR FOG.

ILZ001-002-007-009-015-016-024-070200-
NORTHWEST ILLINOIS

CITY           SKY/WX    TMP DP  RH WIND       PRES   REMARKS
MOLINE         PTCLDY    70  59  68 CALM      29.98F
STERLING*      MOCLDY    75  55  50 SE7       30.00S
$$

ILZ003-004-008-010-011-017-018-070200-
NORTH CENTRAL ILLINOIS

CITY           SKY/WX    TMP DP  RH WIND       PRES   REMARKS
ROCKFORD       MOCLDY    73  56  54 SE7       30.03F
$$

ILZ005-006-012>014-019>023-070200-
NORTHEAST ILLINOIS

CITY           SKY/WX    TMP DP  RH WIND       PRES   REMARKS
CHICAGO-OHARE  MOCLDY    62  54  74 NE7       30.06S
CHICAGO-MIDWAY MOCLDY    64  54  69 E5        30.06S
AURORA         MOCLDY    73  54  51 SE6       30.04S
WAUKEGAN       FOG       51  51 100 NE3       30.07S VSB 1/2
DUPAGE AIRPORT MOCLDY    68  58  70 E6        30.05S HAZE
WHEELING       MOCLDY    57  52  83 NE5       30.08F
NORTHERLY ISL    N/A     51  48  89 N3          N/A
$$

LMZ740>746-070200-
SOUTHERN LAKE MICHIGAN

STATION/POSITION SKY/WX   TEMP    WIND        PRES    VSBY  WAVE
                          AIR SEA DIR/SP/G                  HT/PER
                          (F)     (DEG/KT/KT) (MB)    (MI)  (FT/S)
HARRISON CRIB              47     350/  7/  7   N/A
BURNHAM HARBOR             52      20/  4/  5   N/A
CALUMET HARBOR             51     360/  3/  4   N/A
BURNS HARBOR               57      70/ 10/ 12 1018.6F
MICHIGAN CITY              63      40/ 16/ 17   N/A
MICHIGAN CITY 6N           55 54   90/  6/  8   N/A           1
ST. JOSEPH                 57 52   60/  8/ 10   N/A           1/ 2
$$

ILZ025>027-034>036-040-047-049-050-058-095>099-070200-
WEST-CENTRAL ILLINOIS

CITY           SKY/WX    TMP DP  RH WIND       PRES   REMARKS
QUINCY         PTCLDY    73  58  59 SE7       29.96F
$$

ILZ028>032-037-038-041>044-048-051>054-059>061-070200-
CENTRAL ILLINOIS

CITY           SKY/WX    TMP DP  RH WIND       PRES   REMARKS
DECATUR        PTCLDY    78  51  38 S10       30.04R
PEORIA         CLEAR     78  52  40 S7        30.00S
SPRINGFIELD    CLEAR     79  52  38 S13       30.01S
TAYLORVILLE    NOT AVBL
$$

ILZ033-039-045-046-055>057-062-063-070200-
EAST-CENTRAL ILLINOIS

CITY           SKY/WX    TMP DP  RH WIND       PRES   REMARKS
CHAMPAIGN      MOCLDY    79  49  34 S12       30.05S
MATTOON        PTCLDY    77  53  43 S5        30.05S
$$

ILZ079-100>102-070200-
SOUTHWEST ILLINOIS

CITY           SKY/WX    TMP DP  RH WIND       PRES   REMARKS
ALTON          CLEAR     75  52  43 S9        30.01S
CAHOKIA*       CLEAR     77  51  40 SE6       30.00S
$$

ILZ064>066-069>071-074>076-080>082-084>086-088>090-092>094-070200-
SOUTH-CENTRAL ILLINOIS

CITY           SKY/WX    TMP DP  RH WIND       PRES   REMARKS
CARBONDALE     CLEAR     76  54  46 SE7       30.03S
MT. VERNON     CLEAR    N/A N/A N/A CALM      30.05S
$$

ILZ067-068-072-073-078-083-087-091-070200-
SOUTHEAST ILLINOIS

CITY           SKY/WX    TMP DP  RH WIND       PRES   REMARKS
LAWRENCEVILLE  CLEAR     74  57  55 SE9       30.06S
$$

ABBREVIATIONS USED IN REMARKS
   TC - TEMPERATURE IN CELSIUS
  WCI - WIND CHILL INDEX
   HX - HEAT INDEX
  VSB - VISIBILITY
$$



USA.gov is the U.S. government's official web portal to all federal, state and local government web resources and services.